TimeAKDT,TemperatureF,Dew PointF,Humidity,Sea Level PressureIn,VisibilityMPH,Wind Direction,Wind SpeedMPH,Gust SpeedMPH,PrecipitationIn,Events,Conditions,WindDirDegrees,DateUTC
12:53 AM,32.0,15.1,50,30.10,10.0,North,9.2,16.1,N/A,,Clear,360,2012-10-20 08:53:00
1:53 AM,33.1,15.1,48,30.12,10.0,North,16.1,20.7,N/A,,Clear,350,2012-10-20 09:53:00
2:53 AM,32.0,14.0,48,30.13,10.0,North,13.8,23.0,N/A,,Clear,360,2012-10-20 10:53:00
3:53 AM,32.0,14.0,48,30.15,10.0,North,10.4,19.6,N/A,,Clear,10,2012-10-20 11:53:00
4:53 AM,32.0,14.0,48,30.17,10.0,North,15.0,-,N/A,,Clear,360,2012-10-20 12:53:00
5:53 AM,30.9,12.9,47,30.18,10.0,NNE,9.2,-,N/A,,Clear,20,2012-10-20 13:53:00
6:53 AM,30.0,12.9,49,30.19,10.0,ENE,8.1,-,N/A,,Clear,60,2012-10-20 14:53:00
7:53 AM,28.9,14.0,54,30.21,10.0,Calm,Calm,-,N/A,,Clear,0,2012-10-20 15:53:00
8:53 AM,26.1,14.0,60,30.22,10.0,SSW,3.5,-,N/A,,Clear,200,2012-10-20 16:53:00
9:53 AM,25.0,14.0,63,30.22,10.0,SE,3.5,-,N/A,,Clear,130,2012-10-20 17:53:00
10:53 AM,32.0,15.1,50,30.24,10.0,Calm,Calm,-,N/A,,Clear,0,2012-10-20 18:53:00
11:53 AM,34.0,15.1,46,30.24,10.0,NNE,5.8,-,N/A,,Clear,20,2012-10-20 19:53:00
12:53 PM,36.0,14.0,41,30.25,10.0,Calm,Calm,-,N/A,,Clear,0,2012-10-20 20:53:00
1:53 PM,39.9,15.1,36,30.24,10.0,North,8.1,-,N/A,,Clear,10,2012-10-20 21:53:00
2:53 PM,42.1,12.9,31,30.24,10.0,North,15.0,-,N/A,,Clear,360,2012-10-20 22:53:00
3:53 PM,42.1,12.9,31,30.24,10.0,NNE,17.3,20.7,N/A,,Clear,20,2012-10-20 23:53:00
4:53 PM,41.0,12.9,32,30.25,10.0,NNE,16.1,26.5,N/A,,Clear,20,2012-10-21 00:53:00
5:53 PM,39.9,17.1,40,30.25,10.0,NNE,18.4,26.5,N/A,,Clear,20,2012-10-21 01:53:00
6:53 PM,39.0,10.9,32,30.27,10.0,NNE,15.0,21.9,N/A,,Clear,20,2012-10-21 02:53:00
7:53 PM,37.0,12.0,36,30.27,10.0,North,17.3,25.3,N/A,,Clear,360,2012-10-21 03:53:00
8:53 PM,36.0,12.0,37,30.28,10.0,North,13.8,24.2,N/A,,Clear,10,2012-10-21 04:53:00
9:53 PM,35.1,12.9,40,30.30,10.0,North,16.1,-,N/A,,Clear,350,2012-10-21 05:53:00
10:53 PM,35.1,14.0,42,30.30,10.0,NNW,18.4,-,N/A,,Clear,340,2012-10-21 06:53:00
11:53 PM,33.1,14.0,46,30.30,10.0,NNW,15.0,23.0,N/A,,Clear,340,2012-10-21 07:53:00